This is the latest recevied weather packets stored in our database for station/object KI7CSN-13. If no packets are shown the sender has not sent any weather packets the latest 10 day(s).
| Time | Temp. | Humidity | Pressure | Rain* | Wind** | Luminosity | Snow |
|---|---|---|---|---|---|---|---|
| 1777985561 | 6.67° C | 72% | 978.5 hPa | 0 mm | - | - | - |
| 1777985261 | 6.67° C | 71% | 978.5 hPa | 0 mm | - | - | - |
| 1777984961 | 6.67° C | 71% | 978.5 hPa | 0 mm | - | - | - |
| 1777984661 | 6.67° C | 72% | 978.4 hPa | 0 mm | - | - | - |
| 1777984361 | 6.67° C | 71% | 978.4 hPa | 0 mm | - | - | - |
| 1777984061 | 7.22° C | 69% | 978.4 hPa | 0 mm | - | - | - |
| 1777983761 | 6.67° C | 65% | 978.5 hPa | 0 mm | - | - | - |
| 1777983461 | 7.78° C | 69% | 978.5 hPa | 0 mm | - | - | - |
| 1777983161 | 7.78° C | 67% | 978.5 hPa | 0 mm | - | - | - |
| 1777982861 | 7.78° C | 68% | 978.4 hPa | 0 mm | - | - | - |
| 1777982561 | 7.78° C | 67% | 978.4 hPa | 0 mm | - | - | - |
| 1777982261 | 8.33° C | 67% | 978.4 hPa | 0 mm | - | - | - |
| 1777981961 | 8.33° C | 68% | 978.4 hPa | 0 mm | - | - | - |
| 1777981661 | 8.33° C | 67% | 978.5 hPa | 0 mm | - | - | - |
| 1777981361 | 8.89° C | 65% | 978.5 hPa | 0 mm | - | - | - |
| 1777981061 | 8.89° C | 65% | 978.5 hPa | 0 mm | - | - | - |
| 1777980761 | 9.44° C | 63% | 978.5 hPa | 0 mm | - | - | - |
| 1777980461 | 9.44° C | 62% | 978.6 hPa | 0 mm | - | - | - |
| 1777980161 | 9.44° C | 63% | 978.6 hPa | 0 mm | - | - | - |
| 1777979861 | 8.89° C | 64% | 978.6 hPa | 0 mm | - | - | - |
| 1777979561 | 8.89° C | 64% | 978.7 hPa | 0 mm | - | - | - |
| 1777979261 | 8.33° C | 66% | 978.7 hPa | 0 mm | - | - | - |
| 1777978961 | 7.78° C | 67% | 978.7 hPa | 0 mm | - | - | - |
| 1777978661 | 7.78° C | 67% | 978.7 hPa | 0 mm | - | - | - |
| 1777978361 | 8.33° C | 66% | 978.6 hPa | 0 mm | - | - | - |
* Rain latest hour (hover to see other rain measurements)
** Current wind speed in m/s (hover to see current wind gust speed)